Find Starlink 4407

NORAD ID: 53196 Int'l Des: 2022-084 Owner: SPXS Country: US Constellation: starlink decayed
LEOCIRCULARRETROGRADE

Historical Track — Apr 2, 2026

正在加载3D地球...

关于 Starlink 4407

正在加载描述...

高度历史

Loading altitude history...

两行轨道根数

1 53196U 22084H 26092.19100545 .11239121 26956-5 23781-3 0 9991
2 53196 97.5898 182.1097 0013287 280.7486 79.2320 16.45820415205260
Epoch: Apr 2, 2026 • Age: 1396 hours

当前状态

Position data unavailable
发射日期 Jul 22, 2022
运行时间 3.8 years
衰减日期 Apr 2, 2026
类型 internet

技术详情

分类 Payload
质量 297.00 kg
干质量 275.00 kg
总质量 297.00 kg
长度 0.20 m
直径 2.80 m
跨度 9.00 m
形状 Box + pan
制造商 SPXS
平台类型 Starlink
阶段状态 Unknown Transfer Status
所有者/国家 SPXS/US

Most Searched